Content
SEND FEEDBACK

Daily
Averages
Monthly
Summary
United States of America

WALTERBORO, SOUTH CAROLINA


Home > North America > United States > South Carolina
Elevation: 23 feet     Latitude: 32 53N     Longitude: 080 41W

WEATHER
 
SELECT A DAY
Number of Records: 142,556;   Date Range: 12/8/08 - 12/16/14
 
SHARE

PRINT THIS DATA

[ ← Previous Day ]
WEATHER ALMANAC - JANUARY 31, 2013
[ Next Day → ]
[ °C ]   °F
Weather ElementAverageHighLow
Temperature48.2 °F55.4 °F (2:55 pm)37.4 °F (11:55 pm)
Dewpoint29.4 °F53.6 °F (12:35 am)17.6 °F (4:15 pm)
Humidity51.6 %100 % (12:35 am)24 % (4:15 pm)
Barometer30.01 in30.20 in (11:15 pm)29.75 in (12:35 am)
Wind Speed12.6 mph25.3 mph (4:35 am)
Wind Gust32.2 mph (4:35 am)
Weather ElementAverage
Visibility10 mi
Wind DirectionW (269.2 °)

Weather ElementTotal
Precipitation---
Heating Degree Days18.6 (Base 65)
Averaged from 63 records on January 31, 2013
WEATHER CONDITIONS BREAKOUT
WIND DIRECTION BREAKOUT
WEATHER BY HOUR - JANUARY 31, 2013
[ °C ]   °F
Local TimeTemperatureDewpointHumidityBarometerVisibilityWind DirectionWind SpeedGust SpeedPrecipitationEventsConditions
12:35 AM53.6 °F53.6 °F100 %29.75 in7.0 miSW (230°)10.4 mphRainLight Rain
1:15 AM53.6 °F51.8 °F94 %29.77 in10.0 miWSW (240°)12.7 mphOvercast
1:35 AM51.8 °F51.8 °F100 %29.78 in10.0 miSW (230°)10.4 mphOvercast
1:55 AM51.8 °F50.0 °F94 %29.79 in10.0 miWSW (240°)10.4 mph16.1 mphOvercast
2:15 AM51.8 °F50.0 °F94 %29.80 in10.0 miWSW (250°)11.5 mph18.4 mphOvercast
2:35 AM51.8 °F50.0 °F94 %29.80 in10.0 miWSW (250°)10.4 mph17.3 mphOvercast
2:55 AM51.8 °F48.2 °F88 %29.80 in10.0 miWest (260°)12.7 mph19.6 mphOvercast
3:35 AM51.8 °F44.6 °F76 %29.83 in10.0 miWest (260°)16.1 mph25.3 mphMostly Cloudy
3:55 AM51.8 °F42.8 °F71 %29.84 in10.0 miWest (260°)12.7 mph21.9 mphOvercast
4:15 AM51.8 °F42.8 °F71 %29.84 in10.0 miWest (280°)18.4 mph24.2 mphOvercast
4:35 AM50.0 °F35.6 °F58 %29.87 in10.0 miWNW (290°)25.3 mph32.2 mphOvercast
4:55 AM48.2 °F32.0 °F54 %29.88 in10.0 miWest (280°)17.3 mph28.8 mphScattered Clouds
5:15 AM46.4 °F32.0 °F57 %29.89 in10.0 miWest (270°)17.3 mph26.5 mphClear
5:35 AM46.4 °F32.0 °F57 %29.90 in10.0 miWest (280°)17.3 mph26.5 mphClear
6:15 AM44.6 °F32.0 °F61 %29.93 in10.0 miWest (280°)17.3 mph23.0 mphClear
6:35 AM44.6 °F32.0 °F61 %29.94 in10.0 miWest (270°)13.8 mph24.2 mphClear
6:55 AM44.6 °F32.0 °F61 %29.96 in10.0 miWest (280°)10.4 mph19.6 mphClear
7:15 AM44.6 °F32.0 °F61 %29.98 in10.0 miWest (280°)10.4 mph18.4 mphClear
7:35 AM44.6 °F32.0 °F61 %29.96 in10.0 miWest (270°)11.5 mph18.4 mphClear
7:55 AM44.6 °F32.0 °F61 %29.98 in10.0 miWest (280°)13.8 mph19.6 mphClear
8:15 AM44.6 °F32.0 °F61 %30.01 in10.0 miWNW (290°)16.1 mph20.7 mphClear
8:35 AM44.6 °F28.4 °F53 %30.02 in10.0 miWNW (290°)21.9 mph28.8 mphClear
8:55 AM44.6 °F26.6 °F49 %30.03 in10.0 miWest (280°)18.4 mph28.8 mphClear
9:15 AM44.6 °F26.6 °F49 %30.03 in10.0 miWNW (300°)18.4 mph26.5 mphClear
9:35 AM44.6 °F26.6 °F49 %30.03 in10.0 miWNW (300°)15.0 mph21.9 mphClear
9:55 AM44.6 °F26.6 °F49 %30.04 in10.0 miWNW (290°)13.8 mph24.2 mphClear
10:15 AM46.4 °F26.6 °F46 %30.04 in10.0 miWNW (290°)13.8 mph23.0 mphClear
10:35 AM46.4 °F26.6 °F46 %30.05 in10.0 miWest (270°)11.5 mph21.9 mphClear
10:55 AM48.2 °F26.6 °F43 %30.05 in10.0 miWest (280°)17.3 mphClear
11:15 AM50.0 °F24.8 °F37 %30.05 in10.0 miWNW (290°)16.1 mph19.6 mphClear
11:35 AM50.0 °F26.6 °F40 %30.05 in10.0 miWest (260°)10.4 mph18.4 mphClear
11:55 AM50.0 °F24.8 °F37 %30.05 in10.0 miWest (280°)10.4 mph18.4 mphClear
12:15 PM51.8 °F24.8 °F35 %30.06 in10.0 miWNW (300°)12.7 mph20.7 mphClear
12:55 PM53.6 °F23.0 °F30 %30.03 in10.0 miWest (280°)18.4 mph24.2 mphClear
1:15 PM53.6 °F23.0 °F30 %30.04 in10.0 miWest (260°)16.1 mph23.0 mphClear
1:35 PM53.6 °F23.0 °F30 %30.03 in10.0 miWest (270°)17.3 mph25.3 mphClear
1:55 PM53.6 °F23.0 °F30 %30.03 in10.0 miWest (270°)16.1 mph24.2 mphClear
2:15 PM53.6 °F23.0 °F30 %30.03 in10.0 miWest (260°)16.1 mph26.5 mphClear
2:35 PM53.6 °F21.2 °F28 %30.03 in10.0 miWNW (290°)17.3 mph23.0 mphClear
2:55 PM55.4 °F21.2 °F26 %30.03 in10.0 miWSW (250°)16.1 mph24.2 mphClear
3:15 PM55.4 °F21.2 °F26 %30.03 in10.0 miWest (280°)19.6 mph25.3 mphClear
3:35 PM53.6 °F19.4 °F26 %30.04 in10.0 miWest (280°)19.6 mph25.3 mphClear
3:55 PM53.6 °F19.4 °F26 %30.05 in10.0 miWNW (290°)12.7 mph26.5 mphClear
4:15 PM53.6 °F17.6 °F24 %30.05 in10.0 miWest (270°)17.3 mph24.2 mphClear
4:35 PM53.6 °F17.6 °F24 %30.06 in10.0 miWest (280°)15.0 mph20.7 mphClear
4:55 PM53.6 °F17.6 °F24 %30.07 in10.0 miWest (280°)17.3 mph25.3 mphClear
5:15 PM51.8 °F19.4 °F28 %30.07 in10.0 miWest (280°)11.5 mph17.3 mphClear
5:35 PM51.8 °F19.4 °F28 %30.08 in10.0 miWest (280°)10.4 mph24.2 mphClear
6:15 PM48.2 °F23.0 °F37 %30.10 in10.0 miWest (260°)4.6 mphClear
6:55 PM46.4 °F23.0 °F40 %30.12 in10.0 miWSW (250°)3.5 mphClear
7:15 PM44.6 °F23.0 °F43 %30.12 in10.0 miWSW (250°)5.8 mphClear
7:35 PM44.6 °F23.0 °F43 %30.13 in10.0 miWest (260°)3.5 mphClear
7:55 PM42.8 °F26.6 °F53 %30.14 in10.0 miWSW (250°)3.5 mphClear
8:35 PM42.8 °F26.6 °F53 %30.15 in10.0 miWest (260°)5.8 mphClear
8:55 PM42.8 °F26.6 °F53 %30.16 in10.0 miWest (260°)5.8 mphClear
9:15 PM42.8 °F26.6 °F53 %30.16 in10.0 miWest (260°)6.9 mphClear
9:35 PM42.8 °F26.6 °F53 %30.17 in10.0 miWest (260°)5.8 mphClear
9:55 PM42.8 °F26.6 °F53 %30.18 in10.0 miWest (260°)4.6 mphClear
10:15 PM41.0 °F26.6 °F57 %30.18 in10.0 miWest (260°)5.8 mphClear
10:35 PM41.0 °F26.6 °F57 %30.19 in10.0 miWest (260°)6.9 mphClear
10:55 PM41.0 °F26.6 °F57 %30.19 in10.0 miWSW (250°)4.6 mphClear
11:15 PM41.0 °F26.6 °F57 %30.20 in10.0 miWSW (250°)5.8 mphClear
11:55 PM37.4 °F26.6 °F65 %30.20 in10.0 miWSW (250°)5.8 mphClear
Hourly data recorded from KRBW, located miles away from Walterboro, South Carolina







STORIES FROM OUR PARTNERS